User: anonymous   Login
Location: Unspecified
(0.0000°N, 0.0000°E)
Time: 18:42:34
(UTC+00:00)
Language:

SBIRS GEO 2 (USA 241) - Orbit

View from above orbital plane
View from above orbital plane
View from above satellite
View from above satellite

Ground track
Ground track

The orbit data is extracted from the following two-line orbital elements,

1 39120U 13011A   17227.93999110 0.00000000  00000-0  00000-0 0    04
2 39120   3.5302 323.4946 0001998 125.8487 234.1987  1.00270000    07
Epoch (UTC): 15 August 2017 22:33:35
Eccentricity: 0.0001998
inclination: 3.5302°
perigee height: 35778 km
apogee height: 35795 km
right ascension of ascending node: 323.4946°
argument of perigee: 125.8487°
revolutions per day: 1.00270000
mean anomaly at epoch: 234.1987°
orbit number at epoch: 0

The dashed part of the orbit path shows where the satellite is in the earth's shadow,  

DLR